| time (UTC) | temp C | wind direction | speed KPH | gust KPH | rain 1hr cm | rain 24hr cm | rain mn cm | humidity % | barometer mb |
| 20260504081520 | 5 | 242 | 0.0 | 0.0 | 0.00 | 0.00 | 0.00 | 72 | 1010.4 |
| 20260504044602 | 6 | 240 | 0.0 | 0.0 | 0.00 | 0.00 | 0.00 | 72 | 1010.6 |
| 20260504043056 | 5 | 240 | 0.0 | 0.0 | 0.00 | 0.00 | 0.00 | 72 | 1010.6 |
| 20260504041549 | 5 | 240 | 0.0 | 1.6 | 0.00 | 0.00 | 0.00 | 70 | 1010.6 |
| 20260504034606 | 5 | 233 | 0.0 | 0.0 | 0.00 | 0.00 | 0.00 | 72 | 1010.5 |
| 20260504033042 | 5 | 235 | 0.0 | 1.6 | 0.00 | 0.00 | 0.00 | 72 | 1010.2 |
| 20260504031542 | 5 | 245 | 0.0 | 0.0 | 0.00 | 0.00 | 0.00 | 71 | 1010.1 |
| 20260504030058 | 5 | 245 | 0.0 | 0.0 | 0.00 | 0.00 | 0.00 | 68 | 1010.1 |
| 20260504024541 | 6 | 245 | 0.0 | 0.0 | 0.00 | 0.00 | 0.00 | 66 | 1010.1 |
| 20260504023041 | 6 | 245 | 0.0 | 0.0 | 0.00 | 0.00 | 0.00 | 63 | 1010.2 |
| 20260504021541 | 6 | 245 | 0.0 | 0.0 | 0.00 | 0.00 | 0.00 | 60 | 1010.1 |
| 20260504020040 | 7 | 245 | 0.0 | 0.0 | 0.00 | 0.00 | 0.00 | 56 | 1009.9 |
| 20260504014539 | 7 | 245 | 0.0 | 0.0 | 0.00 | 0.00 | 0.00 | 53 | 1009.8 |
| 20260504013048 | 7 | 245 | 0.0 | 1.6 | 0.00 | 0.00 | 0.00 | 52 | 1009.7 |
| 20260504011540 | 8 | 234 | 0.0 | 0.0 | 0.00 | 0.00 | 0.00 | 47 | 1009.4 |
| 20260504010038 | 8 | 239 | 0.0 | 1.6 | 0.00 | 0.00 | 0.00 | 51 | 1009.3 |
| 20260504004537 | 8 | 239 | 0.0 | 0.0 | 0.00 | 0.00 | 0.00 | 46 | 1009.1 |
| 20260504003037 | 9 | 239 | 0.0 | 0.0 | 0.00 | 0.00 | 0.00 | 42 | 1008.9 |
| 20260504001541 | 10 | 239 | 0.0 | 0.0 | 0.00 | 0.00 | 0.00 | 34 | 1008.5 |
| 20260504000037 | 10 | 248 | 0.0 | 3.2 | 0.00 | 0.00 | 0.00 | 37 | 1008.4 |
| 20260503234535 | 10 | 158 | 0.0 | 3.2 | 0.00 | 0.00 | 0.00 | 35 | 1008.2 |
| 20260503233038 | 11 | 224 | 0.0 | 1.6 | 0.00 | 0.00 | 0.00 | 37 | 1008.2 |
| 20260503231535 | 11 | 245 | 1.6 | 6.4 | 0.00 | 0.00 | 0.00 | 37 | 1008.0 |
| 20260503230034 | 11 | 46 | 0.0 | 1.6 | 0.00 | 0.00 | 0.00 | 38 | 1008.1 |
| 20260503224533 | 12 | 208 | 0.0 | 3.2 | 0.00 | 0.00 | 0.00 | 37 | 1008.0 |
| 20260503223032 | 12 | 71 | 1.6 | 6.4 | 0.00 | 0.00 | 0.00 | 37 | 1008.0 |
| 20260503221531 | 12 | 352 | 1.6 | 8.0 | 0.00 | 0.00 | 0.00 | 36 | 1008.0 |
| 20260503220031 | 12 | 228 | 0.0 | 9.7 | 0.00 | 0.00 | 0.00 | 37 | 1008.0 |
| 20260503214531 | 12 | 29 | 1.6 | 11.3 | 0.00 | 0.00 | 0.00 | 37 | 1008.1 |
| 20260503213037 | 12 | 68 | 1.6 | 11.3 | 0.00 | 0.00 | 0.00 | 37 | 1008.1 |
| 20260503211534 | 12 | 248 | 1.6 | 9.7 | 0.00 | 0.00 | 0.00 | 38 | 1008.1 |
| 20260503210027 | 12 | 219 | 0.0 | 9.7 | 0.00 | 0.00 | 0.00 | 39 | 1007.9 |
| 20260503204531 | 12 | 236 | 1.6 | 9.7 | 0.00 | 0.00 | 0.00 | 37 | 1007.9 |
| 20260503203024 | 12 | 85 | 1.6 | 14.5 | 0.00 | 0.00 | 0.00 | 38 | 1007.8 |
| 20260503201524 | 11 | 47 | 0.0 | 14.5 | 0.00 | 0.00 | 0.00 | 39 | 1007.8 |
| 20260503200023 | 11 | 228 | 1.6 | 11.3 | 0.00 | 0.00 | 0.00 | 39 | 1007.8 |
| 20260503194522 | 11 | 226 | 0.0 | 9.7 | 0.00 | 0.00 | 0.00 | 41 | 1007.7 |
| 20260503193023 | 11 | 217 | 3.2 | 16.1 | 0.00 | 0.00 | 0.00 | 40 | 1007.8 |
| 20260503191521 | 11 | 229 | 1.6 | 16.1 | 0.00 | 0.00 | 0.00 | 39 | 1007.8 |
| 20260503190038 | 11 | 264 | 1.6 | 9.7 | 0.00 | 0.00 | 0.00 | 39 | 1007.9 |
| 20260503184519 | 11 | 235 | 0.0 | 9.7 | 0.00 | 0.00 | 0.00 | 41 | 1007.8 |
| 20260503183022 | 11 | 222 | 1.6 | 9.7 | 0.00 | 0.00 | 0.00 | 41 | 1007.8 |
| 20260503181518 | 11 | 211 | 0.0 | 11.3 | 0.00 | 0.00 | 0.00 | 45 | 1007.8 |
| 20260503180033 | 11 | 15 | 1.6 | 12.9 | 0.00 | 0.00 | 0.00 | 43 | 1008.0 |
| 20260503174517 | 12 | 248 | 4.8 | 11.3 | 0.00 | 0.00 | 0.00 | 41 | 1007.9 |
| 20260503173017 | 11 | 87 | 3.2 | 17.7 | 0.00 | 0.00 | 0.00 | 41 | 1007.7 |
| 20260503171530 | 11 | 242 | 1.6 | 16.1 | 0.00 | 0.00 | 0.00 | 44 | 1007.7 |